[[{"header":{"parameterUnit":"m.s-1","parameterCategory":1,"la1":30.2991,"la2":30.254,"lo1":-89.0895,"lo2":-89.0444,"dy":0.0017,"dx":0.0017,"nx":28,"ny":28,"refTime":"2024-10-16T03:00:00:Z","depth":0,"parameterNumber":2,"parameterNumberName":"U-component_of_WINDS"},"data":[0,0,0,0,0,0,0,0,0,0,0,0,0,0,0,0,0,0,0,0,0,0,0,0,0,0,0,0,0,0,0,0,0,0,0,0,0,0,0,0,0,0,0,0,0,0,0,0,0,0,0,0,0,0,0,0,0,0,-0.7831,-0.7831,0,-0.7821,-0.7821,-0.7821,-0.7758,-0.7757,-0.7755,-0.7754,-0.7741,-0.7743,-0.7744,0,0,0,0,0,0,0,0,0,0,0,0,0,-0.7789,-0.779,-0.7831,-0.7831,-0.7831,-0.7821,-0.7821,-0.7821,-0.7758,-0.7757,-0.7755,-0.7753,-0.7741,-0.7742,-0.7744,0,0,0,0,0,0,0,0,0,0,0,0,0,-0.7796,-0.7791,-0.7831,-0.7798,-0.7795,-0.7821,-0.7821,-0.7821,-0.7759,-0.7757,-0.7754,-0.7752,-0.7741,-0.7742,-0.7744,-0.78,0,0,-0.7749,-0.775,0,0,0,0,0,0,0,0,-0.7796,-0.7798,-0.7803,-0.7801,-0.7797,-0.7789,-0.7802,-0.7814,-0.7759,-0.7773,-0.7754,-0.7751,-0.7759,-0.7759,-0.7762,-0.7799,-0.7799,-0.7749,-0.775,-0.7751,-0.7751,0,0,0,0,0,0,0,-0.7796,-0.7798,-0.7827,-0.7803,-0.78,-0.7782,-0.7781,-0.7804,-0.7779,-0.7771,-0.7767,-0.7767,-0.7757,-0.7761,-0.7761,-0.7798,-0.7749,-0.775,-0.7751,-0.7752,-0.7875,-0.7878,0,0,0,0,0,0,-0.78,-0.7798,-0.7827,-0.7827,-0.7791,-0.7785,-0.7783,-0.7794,-0.7778,-0.7774,-0.7769,-0.7764,-0.7759,-0.7759,-0.7761,-0.7821,-0.7751,-0.7752,-0.7753,-0.7873,-0.7876,-0.7878,0,0,0,0,0,0,-0.78,-0.7803,-0.7828,-0.7811,-0.7813,-0.7788,-0.78,-0.7795,-0.7798,-0.7776,-0.7771,-0.7777,-0.7757,-0.7758,-0.7789,-0.782,-0.7753,-0.7754,-0.787,-0.7874,-0.7877,-0.7946,0,0,0,0,0,0,-0.7799,-0.7804,-0.7826,-0.7812,-0.7814,-0.7859,-0.7802,-0.7796,-0.7802,-0.7795,-0.7783,-0.7779,-0.7755,-0.7787,-0.7791,-0.7821,-0.7756,-0.7868,-0.7872,-0.7876,-0.794,-0.7951,-0.796,0,0,0,0,0,-0.7797,-0.7846,-0.7828,-0.7832,-0.7842,-0.7861,-0.7861,-0.7834,-0.7805,-0.7826,-0.781,-0.7779,-0.7817,-0.7791,-0.7795,-0.7826,-0.7865,-0.7871,-0.7876,-0.7936,-0.7949,-0.796,0,0,0,0,0,0,-0.7865,-0.7844,-0.7823,-0.7869,-0.7867,-0.785,-0.7876,-0.785,-0.7855,-0.7849,-0.7814,-0.7812,-0.7847,-0.784,-0.7812,-0.7876,-0.7835,-0.7841,-0.788,-0.7892,-0.7901,-0.7901,-0.7757,0,0,0,0,0,-0.7885,-0.7904,-0.7884,-0.7926,-0.7926,-0.7902,-0.7909,-0.7888,-0.7884,-0.7882,-0.787,-0.7866,-0.7876,-0.7884,-0.7893,-0.7939,-0.7933,-0.7962,-0.7972,-0.798,-0.7985,-0.8005,-0.8016,-0.7895,-0.7895,-0.7895,0,0,-0.7927,-0.7918,-0.7932,-0.794,-0.7935,-0.7953,-0.7901,-0.7923,-0.7935,-0.7885,-0.7913,-0.7904,-0.7897,-0.7935,-0.7951,-0.793,-0.8017,-0.7987,-0.7993,-0.7994,-0.8011,-0.8022,-0.8033,-0.7899,-0.7898,-0.7898,0,0,-0.8012,-0.8009,-0.8041,-0.8038,-0.8032,-0.8014,-0.8022,-0.8009,-0.8,-0.8028,-0.799,-0.8002,-0.8022,-0.8018,-0.8018,-0.8097,-0.8067,-0.8101,-0.8151,-0.817,-0.818,-0.8188,-0.8213,-0.8222,-0.8106,-0.8106,-0.8107,0,-0.8065,-0.8091,-0.8062,-0.8085,-0.8087,-0.8043,-0.8074,-0.8072,-0.8069,-0.8071,-0.8048,-0.8068,-0.8061,-0.8095,-0.8114,-0.8117,-0.8122,-0.8101,-0.8181,-0.8189,-0.8196,-0.8219,-0.8229,-0.811,-0.811,-0.811,-0.8109,0,-0.8154,-0.8172,-0.8199,-0.8196,-0.8202,-0.823,-0.8202,-0.8211,-0.8189,-0.8173,-0.8199,-0.8189,-0.8192,-0.8199,-0.8179,-0.8229,-0.8216,-0.8188,-0.8145,-0.8212,-0.8233,-0.8242,-0.8116,-0.8115,-0.8113,-0.8112,0,0,-0.8282,-0.8261,-0.8271,-0.8267,-0.8256,-0.8268,-0.8292,-0.8295,-0.8302,-0.8301,-0.8317,-0.8334,-0.8306,-0.8306,-0.8284,-0.8302,-0.836,-0.827,-0.8269,-0.8284,-0.841,-0.843,-0.8441,-0.834,-0.8342,-0.8343,-0.841,0,-0.836,-0.84,-0.8373,-0.8416,-0.843,-0.8387,-0.8406,-0.84,-0.8386,-0.8394,-0.8377,-0.8388,-0.8352,-0.8352,-0.8367,-0.835,-0.8384,-0.8345,-0.8352,-0.8353,-0.8353,-0.8452,-0.8474,-0.8537,-0.8418,-0.842,-0.8421,0,-0.8458,-0.846,-0.8504,-0.8486,-0.8491,-0.8509,-0.8508,-0.8518,-0.8508,-0.8496,-0.8495,-0.8466,-0.8485,-0.8445,-0.8468,-0.8442,-0.8443,-0.8435,-0.8436,-0.8434,-0.8389,-0.845,-0.8557,-0.8566,-0.8434,-0.8433,-0.8432,0,-0.8542,-0.8556,-0.8583,-0.8582,-0.8562,-0.8575,-0.8568,-0.8556,-0.8559,-0.8557,-0.8558,-0.8559,-0.8559,-0.8559,-0.8531,-0.8505,-0.8556,-0.8515,-0.8544,-0.8544,-0.8555,-0.8555,-0.8662,-0.8561,-0.8561,-0.8561,-0.8561,0,-0.8631,-0.8659,-0.862,-0.8637,-0.8665,-0.8632,-0.8661,-0.8649,-0.8638,-0.865,-0.8613,-0.8624,-0.8587,-0.8594,-0.8572,-0.8592,-0.8593,-0.8581,-0.8575,-0.8583,-0.8584,-0.8582,-0.8576,-0.8563,-0.8563,-0.8562,-0.8562,0,-0.873,-0.8705,-0.8731,-0.871,-0.8705,-0.8727,-0.8707,-0.872,-0.8702,-0.8717,-0.8718,-0.8689,-0.8695,-0.8667,-0.8668,-0.8652,-0.8682,-0.8669,-0.8685,-0.868,-0.871,-0.8706,-0.8817,-0.8828,-0.8724,-0.8725,-0.8725,0,-0.8787,-0.8807,-0.8787,-0.8792,-0.8786,-0.8795,-0.8797,-0.8764,-0.8767,-0.8756,-0.8769,-0.8772,-0.8772,-0.8781,-0.8759,-0.8759,-0.8744,-0.8782,-0.8743,-0.875,-0.874,-0.8738,-0.8738,-0.879,-0.8791,-0.8792,-0.8793,0,-0.889,-0.8876,-0.888,-0.8879,-0.8882,-0.888,-0.8875,-0.8881,-0.8845,-0.885,-0.8855,-0.8855,-0.8854,-0.8855,-0.885,-0.8839,-0.8809,-0.8806,-0.8812,-0.882,-0.8826,-0.8819,-0.8704,-0.8803,-0.8802,-0.8801,-0.8801,-0.8801,-0.8967,-0.8981,-0.8968,-0.8973,-0.8966,-0.8961,-0.8971,-0.8953,-0.8957,-0.8954,-0.8934,-0.8942,-0.8928,-0.8917,-0.8909,-0.8913,-0.8894,-0.8904,-0.8906,-0.8908,-0.8912,-0.8828,-0.8912,-0.8912,-0.8912,-0.8911,-0.8911,0,-0.9065,-0.9054,-0.9059,-0.9052,-0.9055,-0.9027,-0.9019,-0.9023,-0.903,-0.902,-0.902,-0.9023,-0.9024,-0.9001,-0.8998,-0.9005,-0.8991,-0.9005,-0.9003,-0.9,-0.8931,-0.8924,-0.9016,-0.9016,-0.9016,-0.9016,-0.9016,-0.9016,-0.9116,-0.9137,-0.9121,-0.9136,-0.9125,-0.9132,-0.9129,-0.9123,-0.9115,-0.912,-0.912,-0.9105,-0.9089,-0.9084,-0.9082,-0.9075,-0.9074,-0.9092,-0.908,-0.9016,-0.9005,-0.8995,-0.8989,-0.9093,-0.9093,-0.9148,-0.9149,-0.9149]},{"header":{"parameterUnit":"m.s-1","parameterCategory":1,"la1":30.2991,"la2":30.254,"lo1":-89.0895,"lo2":-89.0444,"dy":0.0017,"dx":0.0017,"nx":28,"ny":28,"refTime":"2024-10-16T03:00:00:Z","depth":0,"parameterNumber":3,"parameterNumberName":"V-component_of_WINDS"},"data":[0,0,0,0,0,0,0,0,0,0,0,0,0,0,0,0,0,0,0,0,0,0,0,0,0,0,0,0,0,0,0,0,0,0,0,0,0,0,0,0,0,0,0,0,0,0,0,0,0,0,0,0,0,0,0,0,0,0,0.5994,0.5994,0,0.6052,0.6052,0.6053,0.61,0.6101,0.6101,0.6102,0.6159,0.6161,0.6162,0,0,0,0,0,0,0,0,0,0,0,0,0,0.592,0.5921,0.5994,0.5994,0.5995,0.6052,0.6052,0.6053,0.61,0.6101,0.6101,0.6102,0.6159,0.616,0.6162,0,0,0,0,0,0,0,0,0,0,0,0,0,0.5962,0.5921,0.5994,0.6025,0.6029,0.6052,0.6052,0.6053,0.61,0.6101,0.6102,0.6102,0.6159,0.616,0.6162,0.6157,0,0,0.6167,0.6167,0,0,0,0,0,0,0,0,0.596,0.5965,0.602,0.6023,0.6027,0.607,0.6048,0.6088,0.61,0.6073,0.6102,0.6103,0.6129,0.6133,0.6142,0.616,0.6162,0.6167,0.6168,0.6169,0.6169,0,0,0,0,0,0,0,0.5957,0.5963,0.6017,0.6021,0.6025,0.6036,0.6042,0.6055,0.6096,0.6075,0.6079,0.6085,0.6131,0.6141,0.6144,0.6163,0.6167,0.6168,0.6169,0.617,0.6176,0.6175,0,0,0,0,0,0,0.5949,0.596,0.6015,0.6018,0.5995,0.6036,0.6044,0.6055,0.6096,0.6103,0.6085,0.6087,0.6137,0.6142,0.6146,0.6141,0.6169,0.617,0.6171,0.6176,0.6176,0.6175,0,0,0,0,0,0,0.5948,0.5954,0.6013,0.599,0.5998,0.6037,0.6049,0.6056,0.6066,0.6103,0.611,0.6087,0.6138,0.6144,0.6153,0.6144,0.6171,0.6172,0.6177,0.6176,0.6175,0.6132,0,0,0,0,0,0,0.5945,0.5953,0.5953,0.599,0.5999,0.602,0.6049,0.6057,0.6069,0.6073,0.6107,0.6114,0.6139,0.6151,0.6155,0.6146,0.6174,0.6178,0.6177,0.6175,0.6134,0.6129,0.6125,0,0,0,0,0,0.5942,0.5939,0.5952,0.5959,0.6,0.6019,0.6025,0.6055,0.6068,0.6067,0.609,0.6113,0.6144,0.6151,0.6156,0.6148,0.6179,0.6177,0.6176,0.6136,0.613,0.6125,0,0,0,0,0,0,0.59,0.5944,0.596,0.5968,0.5989,0.6027,0.6027,0.6048,0.6065,0.6068,0.6104,0.6111,0.6116,0.6133,0.614,0.6144,0.6164,0.6163,0.6132,0.6127,0.6122,0.6118,0.6175,0,0,0,0,0,0.5891,0.5904,0.5942,0.5945,0.5955,0.5989,0.5999,0.6019,0.6043,0.6052,0.6076,0.6097,0.6111,0.612,0.6136,0.6137,0.6143,0.6133,0.6128,0.6124,0.6123,0.6122,0.6117,0.6169,0.6169,0.6169,0,0,0.5874,0.59,0.5906,0.5937,0.5956,0.5967,0.5996,0.6008,0.6015,0.6054,0.6063,0.6081,0.6107,0.6111,0.6115,0.6126,0.611,0.6122,0.6119,0.612,0.6119,0.6114,0.611,0.6167,0.6168,0.6168,0,0,0.5848,0.5869,0.5873,0.5891,0.5919,0.5941,0.5941,0.5975,0.5989,0.5999,0.6027,0.6036,0.6061,0.6077,0.6089,0.6064,0.6085,0.6068,0.6044,0.6042,0.6038,0.6035,0.6024,0.602,0.6067,0.6067,0.6067,0,0.5823,0.5841,0.5873,0.5881,0.5893,0.5927,0.593,0.5945,0.5977,0.5983,0.5995,0.6025,0.6045,0.6052,0.6046,0.6054,0.6055,0.6065,0.6036,0.6033,0.603,0.602,0.6016,0.6065,0.6065,0.6065,0.6065,0,0.5807,0.5819,0.5819,0.5847,0.5859,0.5864,0.5895,0.5903,0.5922,0.5942,0.595,0.5975,0.5994,0.5998,0.6017,0.6006,0.6012,0.603,0.6051,0.6022,0.6013,0.601,0.6061,0.6062,0.6063,0.6063,0,0,0.5758,0.5801,0.58,0.5812,0.5844,0.5853,0.5859,0.5878,0.5882,0.5902,0.5906,0.5925,0.594,0.5953,0.5974,0.5972,0.5948,0.599,0.5991,0.598,0.5935,0.5921,0.5916,0.5962,0.5961,0.5961,0.5932,0,0.5736,0.5749,0.5775,0.5779,0.5789,0.582,0.5824,0.5843,0.5861,0.5871,0.5891,0.5902,0.5923,0.593,0.593,0.5951,0.594,0.5954,0.5965,0.5965,0.5956,0.5912,0.5898,0.587,0.5929,0.5929,0.5929,0,0.5712,0.5728,0.5733,0.576,0.5765,0.5769,0.5787,0.5797,0.5817,0.583,0.5843,0.5865,0.587,0.589,0.5897,0.5906,0.5911,0.5922,0.5921,0.5923,0.5944,0.5911,0.5862,0.5857,0.5924,0.5924,0.5924,0,0.5673,0.5696,0.5701,0.571,0.5744,0.5745,0.5758,0.578,0.5788,0.5803,0.5809,0.5824,0.5833,0.5843,0.5868,0.5881,0.5871,0.5894,0.588,0.5879,0.5877,0.5876,0.5827,0.5882,0.5882,0.5883,0.5883,0,0.5645,0.5646,0.5683,0.5686,0.5687,0.5717,0.5716,0.5733,0.5751,0.5756,0.5784,0.5788,0.5821,0.5829,0.5848,0.5849,0.5853,0.5862,0.5867,0.5859,0.5858,0.5863,0.5865,0.5881,0.5882,0.5882,0.5882,0,0.5602,0.5627,0.5634,0.5664,0.5671,0.567,0.5695,0.5698,0.5716,0.5722,0.5725,0.5754,0.5764,0.579,0.5807,0.5819,0.5814,0.5825,0.5807,0.581,0.5795,0.5795,0.5746,0.5739,0.58,0.58,0.5799,0,0.5582,0.5583,0.5612,0.5617,0.5629,0.5638,0.5646,0.5674,0.5681,0.5702,0.5702,0.5714,0.5725,0.5738,0.576,0.5772,0.5782,0.5764,0.5784,0.5775,0.5779,0.5778,0.5777,0.5759,0.5758,0.5757,0.5757,0,0.5543,0.5554,0.5565,0.5579,0.5588,0.56,0.5614,0.5617,0.5648,0.5654,0.5664,0.5672,0.5688,0.5698,0.5713,0.5726,0.5745,0.575,0.5747,0.5739,0.5728,0.5731,0.5793,0.5751,0.5752,0.5752,0.5753,0.5753,0.551,0.5511,0.553,0.554,0.5553,0.5565,0.5568,0.5586,0.5594,0.5609,0.5625,0.5632,0.565,0.5671,0.5682,0.5688,0.5698,0.5695,0.5694,0.5692,0.5687,0.5727,0.5691,0.5691,0.5691,0.5691,0.5691,0,0.5471,0.5484,0.5493,0.551,0.5517,0.5535,0.555,0.5555,0.556,0.5575,0.5584,0.5594,0.5603,0.5625,0.5635,0.5635,0.5644,0.5637,0.5637,0.5639,0.5678,0.5679,0.5629,0.5629,0.5629,0.5629,0.5629,0.5629,0.5451,0.5453,0.5466,0.5473,0.5486,0.5493,0.55,0.551,0.5521,0.553,0.5538,0.5552,0.5568,0.558,0.5588,0.5594,0.5596,0.5585,0.5594,0.563,0.5636,0.5642,0.5642,0.5586,0.5586,0.5554,0.5553,0.5553]}]]